DLH205 CYVR-KLAX

Flight info

Callsign DLH205
Flight time N/A
Altitude 37000
Route SEA DCT JINMO Q7 JAGWA DCT BURGL IRNMN2
Aircraft A388/J-SADE2E3FGHIJ3J4J5M1RWXY/LB1D1

Departure

Time 2026-05-05 02:01
Airport Vancouver International Airport (CYVR)

Arrival

Time N/A
Airport Los Angeles International Airport (KLAX)
Time Latitude Longitude Altitude Speed Heading
2026-05-05 01:29 49.19964 -123.18373 16 ft 0 kts 190°
2026-05-05 01:41 49.19977 -123.18369 16 ft 2 kts 190°
2026-05-05 01:41 49.19992 -123.18365 16 ft 2 kts 190°
2026-05-05 01:41 49.20006 -123.18361 16 ft 2 kts 190°
2026-05-05 01:41 49.20022 -123.18357 16 ft 2 kts 214°
2026-05-05 01:42 49.20032 -123.18340 16 ft 2 kts 262°
2026-05-05 01:42 49.20033 -123.18326 16 ft 1 kts 285°
2026-05-05 01:42 49.20032 -123.18318 16 ft 0 kts 281°
2026-05-05 01:50 49.20032 -123.18319 16 ft 0 kts 281°
2026-05-05 01:50 49.20037 -123.18362 16 ft 8 kts 279°
2026-05-05 01:51 49.20066 -123.18464 16 ft 13 kts 313°
2026-05-05 01:51 49.20128 -123.18569 16 ft 14 kts 295°
2026-05-05 01:51 49.20148 -123.18727 16 ft 16 kts 279°
2026-05-05 01:51 49.20166 -123.18899 16 ft 13 kts 277°
2026-05-05 01:52 49.20129 -123.19024 16 ft 14 kts 210°
2026-05-05 01:52 49.20027 -123.19059 16 ft 16 kts 190°
2026-05-05 01:52 49.19911 -123.19090 16 ft 18 kts 190°
2026-05-05 01:52 49.19782 -123.19126 16 ft 20 kts 191°
2026-05-05 01:53 49.19652 -123.19163 16 ft 18 kts 190°
2026-05-05 01:53 49.19528 -123.19130 16 ft 19 kts 148°
2026-05-05 01:53 49.19418 -123.19001 16 ft 21 kts 143°
2026-05-05 01:53 49.19299 -123.18861 16 ft 22 kts 142°
2026-05-05 01:54 49.19178 -123.18716 16 ft 22 kts 142°
2026-05-05 01:54 49.19057 -123.18570 16 ft 22 kts 142°
2026-05-05 01:54 49.18957 -123.18403 16 ft 21 kts 114°
2026-05-05 01:54 49.18925 -123.18186 16 ft 21 kts 100°
2026-05-05 01:55 49.18899 -123.17968 16 ft 21 kts 101°
2026-05-05 01:55 49.18874 -123.17753 16 ft 21 kts 101°
2026-05-05 01:55 49.18848 -123.17540 16 ft 20 kts 99°
2026-05-05 01:55 49.18824 -123.17330 16 ft 20 kts 100°
2026-05-05 01:56 49.18800 -123.17121 16 ft 20 kts 100°
2026-05-05 01:56 49.18776 -123.16915 16 ft 20 kts 101°
2026-05-05 01:56 49.18756 -123.16711 16 ft 19 kts 98°
2026-05-05 01:56 49.18733 -123.16511 16 ft 19 kts 101°
2026-05-05 01:57 49.18713 -123.16363 16 ft 11 kts 105°
2026-05-05 01:57 49.18685 -123.16264 16 ft 9 kts 119°
2026-05-05 01:57 49.18658 -123.16192 16 ft 7 kts 119°
2026-05-05 01:57 49.18647 -123.16162 16 ft 1 kts 119°
2026-05-05 01:58 49.18646 -123.16158 16 ft 0 kts 119°
2026-05-05 01:58 49.18645 -123.16154 16 ft 0 kts 119°
2026-05-05 01:58 49.18643 -123.16150 16 ft 0 kts 119°
2026-05-05 01:58 49.18642 -123.16147 16 ft 0 kts 119°
2026-05-05 01:59 49.18637 -123.16134 16 ft 4 kts 119°
2026-05-05 01:59 49.18612 -123.16079 16 ft 8 kts 135°
2026-05-05 01:59 49.18549 -123.16044 16 ft 11 kts 183°
2026-05-05 01:59 49.18491 -123.16099 16 ft 9 kts 239°
2026-05-05 02:00 49.18489 -123.16188 16 ft 8 kts 279°
2026-05-05 02:00 49.18519 -123.16491 16 ft 62 kts 280°
2026-05-05 02:00 49.18639 -123.17511 16 ft 133 kts 279°
2026-05-05 02:00 49.18836 -123.19234 186 ft 188 kts 278°
2026-05-05 02:01 49.19073 -123.21283 904 ft 211 kts 279°
2026-05-05 02:01 49.19342 -123.23592 1619 ft 228 kts 278°
2026-05-05 02:01 49.19600 -123.25981 2257 ft 232 kts 279°
2026-05-05 02:01 49.19845 -123.28400 2900 ft 234 kts 278°
2026-05-05 02:02 49.20088 -123.30879 3547 ft 248 kts 278°
2026-05-05 02:02 49.20351 -123.33581 4385 ft 268 kts 278°
2026-05-05 02:02 49.20623 -123.36395 5148 ft 272 kts 278°
2026-05-05 02:02 49.20875 -123.39247 5890 ft 275 kts 272°
2026-05-05 02:03 49.20472 -123.42072 6634 ft 278 kts 239°
2026-05-05 02:03 49.19090 -123.44073 7426 ft 283 kts 206°
2026-05-05 02:03 49.17177 -123.44584 8219 ft 289 kts 173°
2026-05-05 02:03 49.15248 -123.43753 8959 ft 294 kts 162°
2026-05-05 02:04 49.13333 -123.42636 9588 ft 300 kts 157°
2026-05-05 02:04 49.11434 -123.41339 10215 ft 304 kts 156°
2026-05-05 02:04 49.09481 -123.40008 10851 ft 324 kts 156°
2026-05-05 02:04 49.07308 -123.38530 11437 ft 360 kts 156°
2026-05-05 02:05 49.04916 -123.36902 12018 ft 399 kts 156°
2026-05-05 02:05 49.02281 -123.35112 12588 ft 431 kts 156°
2026-05-05 02:05 48.99522 -123.33241 13110 ft 441 kts 156°
2026-05-05 02:05 48.96717 -123.31340 13617 ft 446 kts 156°
2026-05-05 02:06 48.93884 -123.29423 14128 ft 450 kts 155°
2026-05-05 02:06 48.91030 -123.27494 14751 ft 454 kts 155°
2026-05-05 02:06 48.88122 -123.25530 15382 ft 460 kts 155°
2026-05-05 02:06 48.85204 -123.23563 16004 ft 465 kts 155°
2026-05-05 02:07 48.82253 -123.21576 16628 ft 469 kts 155°
2026-05-05 02:07 48.79275 -123.19573 17250 ft 474 kts 155°
2026-05-05 02:07 48.76264 -123.17551 17873 ft 479 kts 155°
2026-05-05 02:07 48.73218 -123.15507 18497 ft 484 kts 155°
2026-05-05 02:08 48.70146 -123.13451 19121 ft 488 kts 155°
2026-05-05 02:08 48.67021 -123.11361 19750 ft 493 kts 155°
2026-05-05 02:08 48.63893 -123.09271 20375 ft 497 kts 155°
2026-05-05 02:08 48.60736 -123.07165 21000 ft 501 kts 155°
2026-05-05 02:09 48.57554 -123.05045 21625 ft 505 kts 155°
2026-05-05 02:09 48.54345 -123.02910 22251 ft 509 kts 155°
2026-05-05 02:09 48.51110 -123.00761 22877 ft 513 kts 155°
2026-05-05 02:09 48.47851 -122.98599 23504 ft 517 kts 155°
2026-05-05 02:10 48.44543 -122.96408 24135 ft 522 kts 155°
2026-05-05 02:10 48.41232 -122.94217 24764 ft 525 kts 154°
2026-05-05 02:10 48.37893 -122.92011 25365 ft 530 kts 154°
2026-05-05 02:10 48.34520 -122.89786 25868 ft 535 kts 154°
2026-05-05 02:11 48.31122 -122.87547 26373 ft 538 kts 154°
2026-05-05 02:11 48.27702 -122.85298 26879 ft 541 kts 154°
2026-05-05 02:11 48.24262 -122.83038 27383 ft 546 kts 155°
2026-05-05 02:11 48.20768 -122.80749 27894 ft 549 kts 154°
2026-05-05 02:12 48.17279 -122.78465 28401 ft 553 kts 154°
2026-05-05 02:12 48.10229 -122.73858 29418 ft 559 kts 154°
2026-05-05 02:12 48.06678 -122.71544 29926 ft 562 kts 154°
2026-05-05 02:13 48.03096 -122.69212 30336 ft 569 kts 154°
2026-05-05 02:13 47.99475 -122.66862 30678 ft 571 kts 154°
2026-05-05 02:13 47.95834 -122.64503 31011 ft 569 kts 154°
2026-05-05 02:13 47.92225 -122.62161 31340 ft 569 kts 154°
2026-05-05 02:14 47.88613 -122.59825 31610 ft 572 kts 154°
2026-05-05 02:14 47.84977 -122.57474 31852 ft 573 kts 154°
2026-05-05 02:14 47.81345 -122.55133 32092 ft 572 kts 154°
2026-05-05 02:14 47.77714 -122.52796 32332 ft 572 kts 154°
2026-05-05 02:15 47.74088 -122.50464 32572 ft 571 kts 154°
2026-05-05 02:15 47.70438 -122.48122 32813 ft 571 kts 153°
2026-05-05 02:15 47.66819 -122.45801 33055 ft 570 kts 153°
2026-05-05 02:15 47.63205 -122.43489 33296 ft 569 kts 153°
2026-05-05 02:16 47.59593 -122.41181 33538 ft 568 kts 153°
2026-05-05 02:16 47.55987 -122.38879 33781 ft 568 kts 153°
2026-05-05 02:16 47.52384 -122.36586 34023 ft 567 kts 153°
2026-05-05 02:16 47.48787 -122.34297 34267 ft 566 kts 154°
2026-05-05 02:17 47.45122 -122.32148 34493 ft 568 kts 160°
2026-05-05 02:17 47.41329 -122.30624 34748 ft 570 kts 166°
2026-05-05 02:17 47.37443 -122.29619 35001 ft 571 kts 169°
2026-05-05 02:17 47.33545 -122.28708 35247 ft 571 kts 169°
2026-05-05 02:18 47.29649 -122.27767 35447 ft 571 kts 168°
2026-05-05 02:18 47.25759 -122.26829 35649 ft 570 kts 168°